Content
SEND FEEDBACK

Daily
Averages
Monthly
Summary
United States of America

BAYSIDE, NEW YORK


Home > North America > United States > New York
Elevation: 11 feet     Latitude: 40 46N     Longitude: 073 54W

WEATHER
 
SELECT A DAY
Number of Records: 191,266;   Date Range: 1/1/95 - 9/3/14
 
SHARE

PRINT THIS DATA

[ ← Previous Day ]
WEATHER ALMANAC - FEBRUARY 20, 2013
[ Next Day → ]
[ °C ]   °F
Weather ElementAverageHighLow
Temperature31.3 °F37 °F (1:51 am)27 °F (10:51 pm)
Dewpoint11.5 °F19 °F (1:51 am)7 °F (1:51 pm)
Humidity44.1 %51 % (11:51 pm)35 % (1:51 pm)
Barometer29.86 in29.99 in (11:51 pm)29.73 in (1:51 am)
Wind Speed20.2 mph27.6 mph (3:51 pm)
Wind Gust36.8 mph (6:51 pm)
Weather ElementAverage
Visibility10 mi
Wind DirectionWNW (284.8 °)

Weather ElementTotal
Precipitation---
Heating Degree Days33 (Base 65)
Averaged from 23 records on February 20, 2013
WEATHER CONDITIONS BREAKOUT
WIND DIRECTION BREAKOUT
WEATHER BY HOUR - FEBRUARY 20, 2013
[ °C ]   °F
Local TimeTemperatureDewpointHumidityBarometerVisibilityWind DirectionWind SpeedGust SpeedPrecipitationEventsConditions
1:51 AM37.0 °F19.0 °F48 %29.73 in10.0 miWest (260°)17.3 mph29.9 mphClear
2:51 AM36.0 °F19.0 °F50 %29.74 in10.0 miWNW (290°)19.6 mph26.5 mphPartly Cloudy
3:51 AM35.1 °F17.1 °F48 %29.75 in10.0 miWest (270°)20.7 mph32.2 mphPartly Cloudy
4:51 AM33.1 °F15.1 °F48 %29.77 in10.0 miWNW (290°)19.6 mph28.8 mphPartly Cloudy
5:51 AM32.0 °F14.0 °F48 %29.79 in10.0 miWest (280°)18.4 mph32.2 mphPartly Cloudy
6:51 AM32.0 °F15.1 °F50 %29.81 in10.0 miWNW (290°)18.4 mph25.3 mphPartly Cloudy
7:51 AM32.0 °F15.1 °F50 %29.83 in10.0 miWest (280°)17.3 mph25.3 mphMostly Cloudy
8:51 AM30.9 °F10.0 °F42 %29.85 in10.0 miWNW (290°)18.4 mph28.8 mphMostly Cloudy
9:51 AM30.9 °F9.0 °F40 %29.86 in10.0 miWNW (300°)21.9 mph29.9 mphScattered Clouds
10:51 AM32.0 °F8.1 °F37 %29.85 in10.0 miWest (260°)24.2 mph27.6 mphMostly Cloudy
11:51 AM30.9 °F10.9 °F43 %29.84 in10.0 miWest (280°)17.3 mph28.8 mphMostly Cloudy
12:51 PM30.9 °F8.1 °F38 %29.84 in10.0 miWest (260°)19.6 mph31.1 mphOvercast
1:51 PM32.0 °F7.0 °F35 %29.84 in10.0 miWest (260°)18.4 mph31.1 mphMostly Cloudy
2:51 PM32.0 °F8.1 °F37 %29.85 in10.0 miWest (270°)20.7 mph28.8 mphMostly Cloudy
3:51 PM30.9 °F8.1 °F38 %29.87 in10.0 miWest (270°)27.6 mph32.2 mphMostly Cloudy
4:51 PM30.9 °F9.0 °F40 %29.88 in10.0 miWNW (290°)19.6 mph29.9 mphMostly Cloudy
5:51 PM30.2 °F8.6 °F40 %29.88 in10.0 miWNW (290°)19.6 mph29.9 mphMostly Cloudy
6:51 PM30.9 °F10.0 °F42 %29.93 in10.0 miWNW (290°)25.3 mph36.8 mphMostly Cloudy
7:51 PM28.9 °F12.0 °F49 %29.94 in10.0 miNW (310°)25.3 mph32.2 mphMostly Cloudy
8:51 PM28.0 °F10.9 °F49 %29.95 in10.0 miNW (310°)23.0 mph34.5 mphPartly Cloudy
9:51 PM28.4 °F10.4 °F47 %29.96 in10.0 miWNW (300°)17.3 mph27.6 mphClear
10:51 PM27.0 °F8.1 °F45 %29.98 in10.0 miWNW (300°)18.4 mph28.8 mphPartly Cloudy
11:51 PM27.0 °F10.9 °F51 %29.99 in10.0 miNW (310°)16.1 mph27.6 mphScattered Clouds
Hourly data recorded from KLGA, located miles away from Bayside, New York







STORIES FROM OUR PARTNERS